Location: Niedergestelen
(46.3129°N, 7.7822°E)
Time: 20:54:05
(UTC+00:00)

Lacrosse 5 rocket - Pass Details

Date: 01 December 2020
Orbit: 462 x 633 km, 57.0° (Epoch: 27 January)

Event Time Altitude Azimuth Distance (km) Brightness Sun altitude
Rises 18:22:12 0° 282° (WNW) 2,507 5.8 -26.5°
Reaches altitude 10° 18:24:53 10° 303° (WNW) 1,620 4.3 -27.0°
Enters shadow 18:26:13 15° 323° (NW) 1,320 3.6 -27.2°
